Location: Antioch Baptist Church
(32.6696°N, 85.7327°W)
Time: 20:37:46
(UTC+00:00)

Cosmos 2333 Rocket - Pass Details

Date: 14 July 2020
Orbit: 837 x 864 km, 70.8° (Epoch: 13 August)

Event Time Altitude Azimuth Distance (km) Brightness Sun altitude
Rises 01:45:26 0° 215° (SW) 3,386 5.4 -10.5°
Reaches altitude 10° 01:47:57 10° 221° (SW) 2,458 4.7 -10.9°
Maximum altitude 01:53:22 47° 294° (WNW) 1,111 3.4 -11.9°
Drops below altitude 10° 01:58:53 10° 8° (N) 2,489 5.0 -12.8°
Sets 02:01:27 0° 14° (NNE) 3,432 5.7 -13.2°
